AISSAT 1 (36797 NORAD) Tracking and Keplerian Element Data

This shows tracking and keplerian element data for the satellite.

Feedback or suggestion? Click here.




ElementValue
Catalog36797
NameAISSAT 1
Epoch Orbit75378
Epoch Day159.88400981
Epoch Year2024
RAAN21.0825
Inclination98.1868
Eccentricity0.0009633
Argument of Perigee344.8322
Mean Anonmoly15.2604
Mean Motion14.91125054
Decay Rate4.592E-05
L11 36797U 10035C 24159.88400981 .00004592 00000+0 46874-3 0 9991
L22 36797 98.1868 21.0825 0009633 344.8322 15.2604 14.91125054753789



Live tracking and technical data element details for AISSAT 1 (NORAD 36797). AISSAT 1 can be tracked NOW for your location showing map with azimuth and elevation plus other details from your city location.







IsCatalogInMostPopularTable: catalog: 36797, numindb: 25227
Update: records affected: 1



GetName: 36797 AISSAT 1

Hit Count: updated at: Tue, 17 Sep 2024 12:02:38 GMT